Location: Claremont
(33.9858°S, 18.4575°E)
Time: 02:53:36
(UTC+00:00)

ASTEX 1 - Pass Details

Date: 03 March 2021
Orbit: 721 x 742 km, 92.7° (Epoch: 21 April)

Event Time Altitude Azimuth Distance (km) Brightness Sun altitude
Rises 18:03:17 0° 21° (NNE) 3,128 6.3 -9.7°
Reaches altitude 10° 18:05:36 10° 26° (NNE) 2,218 5.5 -10.1°
Maximum altitude 18:10:20 50° 100° (E) 934 3.6 -11.1°
Drops below altitude 10° 18:15:09 10° 174° (S) 2,260 6.1 -12.0°
Sets 18:17:32 0° 179° (S) 3,194 6.9 -12.5°
